When you browse on this site, cookies collect data to enhance your experience and personalize the content and advertising you see.
Visit our Privacy Policy to learn more. By continuing to use the site, you agree to this use of cookies and data.
  • In Latvia
  • List of Countries
  • For 7 days
  • Water Temperature
  • Weather Map
  • Weather Widgets
  • user-avatar
    Login

    Hourly Weather Santa Fe

    Today, 23 February, Sunday

    Time Temperature Precipitation Wind Pressure Humidity
    00:00 +17°C° 0 mm 2 mps 763 mmHg 42%
    01:00 +17°C° 0 mm 2 mps 763 mmHg 46%
    02:00 +16°C° 0 mm 2 mps 763 mmHg 49%
    03:00 +16°C° 0 mm 2 mps 762 mmHg 52%
    04:00 +15°C° 0 mm 2 mps 762 mmHg 55%
    05:00 +15°C° 0 mm 2 mps 762 mmHg 58%
    06:00 +17°C° 0 mm 2 mps 762 mmHg 53%
    07:00 +19°C° 0 mm 2 mps 762 mmHg 48%
    08:00 +21°C° 0 mm 2 mps 762 mmHg 44%
    09:00 +24°C° 0 mm 2 mps 762 mmHg 38%
    10:00 +26°C° 0 mm 3 mps 762 mmHg 33%
    11:00 +29°C° 0 mm 3 mps 761 mmHg 28%
    12:00 +30°C° 0 mm 3 mps 760 mmHg 26%
    13:00 +31°C° 0 mm 3 mps 759 mmHg 25%
    14:00 +33°C° 0 mm 3 mps 759 mmHg 23%
    15:00 +33°C° 0 mm 3 mps 758 mmHg 24%
    16:00 +33°C° 0 mm 4 mps 757 mmHg 24%
    17:00 +33°C° 0 mm 4 mps 756 mmHg 25%
    18:00 +29°C° 0 mm 4 mps 756 mmHg 30%
    19:00 +27°C° 0 mm 4 mps 756 mmHg 36%
    20:00 +24°C° 0 mm 3 mps 756 mmHg 42%
    21:00 +24°C° 0 mm 3 mps 756 mmHg 45%
    22:00 +22°C° 0 mm 3 mps 756 mmHg 48%
    23:00 +21°C° 0 mm 3 mps 756 mmHg 52%

    Tomorrow, 24 February, Monday

    Time Temperature Precipitation Wind Pressure Humidity
    00:00 +20°C° 0 mm 3 mps 756 mmHg 55%
    01:00 +20°C° 0 mm 3 mps 756 mmHg 58%
    02:00 +19°C° 0 mm 3 mps 755 mmHg 60%
    03:00 +18°C° 0 mm 3 mps 755 mmHg 62%
    04:00 +18°C° 0 mm 3 mps 755 mmHg 63%
    05:00 +17°C° 0 mm 2 mps 755 mmHg 64%
    06:00 +19°C° 0 mm 3 mps 755 mmHg 58%
    07:00 +21°C° 0 mm 3 mps 755 mmHg 53%
    08:00 +23°C° 0 mm 4 mps 755 mmHg 47%
    09:00 +27°C° 0 mm 4 mps 755 mmHg 39%
    10:00 +30°C° 0 mm 4 mps 755 mmHg 32%
    11:00 +34°C° 0 mm 4 mps 754 mmHg 24%
    12:00 +35°C° 0 mm 4 mps 753 mmHg 22%
    13:00 +36°C° 0 mm 4 mps 752 mmHg 20%
    14:00 +37°C° 0 mm 3 mps 751 mmHg 18%
    15:00 +37°C° 0 mm 4 mps 751 mmHg 18%
    16:00 +37°C° 0 mm 4 mps 750 mmHg 18%
    17:00 +37°C° 0 mm 4 mps 750 mmHg 19%
    18:00 +34°C° 0 mm 3 mps 750 mmHg 24%
    19:00 +30°C° 0 mm 3 mps 750 mmHg 29%
    20:00 +27°C° 0 mm 3 mps 751 mmHg 34%
    21:00 +26°C° 0 mm 3 mps 751 mmHg 36%
    22:00 +25°C° 0 mm 3 mps 752 mmHg 37%
    23:00 +25°C° 0 mm 3 mps 752 mmHg 38%

    Day after tomorrow, 25 February, Tuesday

    Time Temperature Precipitation Wind Pressure Humidity
    00:00 +24°C° 0 mm 2 mps 753 mmHg 40%
    01:00 +23°C° 0 mm 2 mps 753 mmHg 43%
    02:00 +23°C° 0 mm 1 mps 753 mmHg 45%
    03:00 +21°C° 0 mm 2 mps 753 mmHg 45%
    04:00 +21°C° 0 mm 2 mps 754 mmHg 44%
    05:00 +21°C° 0 mm 2 mps 754 mmHg 44%
    06:00 +22°C° 0 mm 4 mps 755 mmHg 38%
    07:00 +24°C° 0 mm 6 mps 755 mmHg 31%
    08:00 +26°C° 0 mm 7 mps 756 mmHg 24%
    09:00 +27°C° 0 mm 7 mps 756 mmHg 28%
    10:00 +28°C° 0 mm 7 mps 757 mmHg 32%
    11:00 +29°C° 0 mm 7 mps 757 mmHg 36%
    12:00 +30°C° 0 mm 6 mps 756 mmHg 36%
    13:00 +30°C° 0 mm 5 mps 756 mmHg 36%
    14:00 +30°C° 0 mm 4 mps 755 mmHg 35%
    15:00 +32°C° 0 mm 4 mps 755 mmHg 33%
    16:00 +31°C° 0 mm 3 mps 754 mmHg 31%
    17:00 +33°C° 0 mm 3 mps 754 mmHg 29%
    18:00 +30°C° 0 mm 2 mps 754 mmHg 33%
    19:00 +27°C° 0 mm 2 mps 755 mmHg 36%
    20:00 +25°C° 0 mm 1 mps 755 mmHg 40%
    21:00 +24°C° 0 mm 1 mps 755 mmHg 43%
    22:00 +23°C° 0 mm 1 mps 756 mmHg 45%
    23:00 +21°C° 0 mm 2 mps 756 mmHg 48%

    26 February, Wednesday

    Time Temperature Precipitation Wind Pressure Humidity
    00:00 +20°C° 0 mm 2 mps 756 mmHg 52%
    01:00 +20°C° 0 mm 2 mps 756 mmHg 57%
    02:00 +19°C° 0 mm 2 mps 756 mmHg 61%
    03:00 +19°C° 0 mm 2 mps 756 mmHg 60%
    04:00 +18°C° 0 mm 2 mps 757 mmHg 58%
    05:00 +19°C° 0 mm 1 mps 757 mmHg 57%
    06:00 +19°C° 0 mm 2 mps 757 mmHg 48%
    07:00 +21°C° 0 mm 2 mps 757 mmHg 38%
    08:00 +24°C° 0 mm 3 mps 758 mmHg 29%
    09:00 +26°C° 0 mm 4 mps 758 mmHg 26%
    10:00 +29°C° 0 mm 5 mps 758 mmHg 23%
    11:00 +33°C° 0 mm 6 mps 758 mmHg 19%
    12:00 +34°C° 0 mm 6 mps 757 mmHg 19%
    13:00 +34°C° 0 mm 6 mps 757 mmHg 18%
    14:00 +35°C° 0 mm 6 mps 756 mmHg 18%
    15:00 +35°C° 0 mm 6 mps 756 mmHg 19%
    16:00 +34°C° 0 mm 6 mps 755 mmHg 19%
    17:00 +33°C° 0 mm 6 mps 755 mmHg 20%
    18:00 +30°C° 0 mm 5 mps 755 mmHg 26%
    19:00 +28°C° 0 mm 4 mps 756 mmHg 31%
    20:00 +25°C° 0 mm 3 mps 756 mmHg 37%
    21:00 +23°C° 0 mm 4 mps 757 mmHg 40%
    22:00 +23°C° 0 mm 4 mps 758 mmHg 44%
    23:00 +22°C° 0 mm 4 mps 758 mmHg 47%

    27 February, Thursday

    Time Temperature Precipitation Wind Pressure Humidity
    00:00 +21°C° 0 mm 4 mps 758 mmHg 50%
    01:00 +21°C° 0 mm 4 mps 758 mmHg 52%
    02:00 +20°C° 0 mm 4 mps 759 mmHg 55%
    03:00 +19°C° 0 mm 4 mps 759 mmHg 57%
    04:00 +18°C° 0 mm 3 mps 759 mmHg 59%
    05:00 +17°C° 0 mm 3 mps 759 mmHg 61%
    06:00 +19°C° 0 mm 3 mps 759 mmHg 54%
    07:00 +21°C° 0 mm 3 mps 760 mmHg 47%
    08:00 +24°C° 0 mm 3 mps 760 mmHg 39%
    09:00 +26°C° 0 mm 4 mps 759 mmHg 33%
    10:00 +29°C° 0 mm 4 mps 759 mmHg 26%
    11:00 +32°C° 0 mm 4 mps 759 mmHg 20%
    12:00 +33°C° 0 mm 4 mps 758 mmHg 19%
    13:00 +34°C° 0 mm 3 mps 758 mmHg 18%
    14:00 +35°C° 0 mm 3 mps 757 mmHg 16%
    15:00 +35°C° 0 mm 3 mps 756 mmHg 16%
    16:00 +35°C° 0 mm 3 mps 756 mmHg 16%
    17:00 +35°C° 0 mm 2 mps 755 mmHg 17%
    18:00 +31°C° 0 mm 2 mps 755 mmHg 20%
    19:00 +28°C° 0 mm 2 mps 756 mmHg 23%
    20:00 +26°C° 0 mm 2 mps 756 mmHg 27%
    21:00 +25°C° 0 mm 3 mps 756 mmHg 30%
    22:00 +24°C° 0 mm 3 mps 757 mmHg 32%
    23:00 +22°C° 0 mm 3 mps 757 mmHg 35%

    28 February, Friday

    Time Temperature Precipitation Wind Pressure Humidity
    00:00 +21°C° 0 mm 3 mps 757 mmHg 38%
    01:00 +20°C° 0 mm 3 mps 757 mmHg 41%
    02:00 +20°C° 0 mm 3 mps 757 mmHg 44%
    03:00 +19°C° 0 mm 3 mps 757 mmHg 46%
    04:00 +19°C° 0 mm 3 mps 758 mmHg 47%
    05:00 +18°C° 0 mm 3 mps 758 mmHg 49%
    06:00 +20°C° 0 mm 3 mps 758 mmHg 45%
    07:00 +22°C° 0 mm 3 mps 758 mmHg 40%
    08:00 +25°C° 0 mm 4 mps 759 mmHg 36%
    09:00 +28°C° 0 mm 3 mps 758 mmHg 30%
    10:00 +31°C° 0 mm 3 mps 758 mmHg 25%
    11:00 +34°C° 0 mm 3 mps 758 mmHg 20%
    12:00 +35°C° 0 mm 2 mps 757 mmHg 18%
    13:00 +36°C° 0 mm 2 mps 756 mmHg 17%
    14:00 +37°C° 0 mm 2 mps 756 mmHg 16%
    15:00 +37°C° 0 mm 2 mps 755 mmHg 16%
    16:00 +36°C° 0 mm 1 mps 755 mmHg 16%
    17:00 +36°C° 0 mm 1 mps 754 mmHg 16%
    18:00 +33°C° 0 mm 1 mps 755 mmHg 20%
    19:00 +30°C° 0 mm 1 mps 755 mmHg 23%
    20:00 +25°C° 0 mm 0 mps 755 mmHg 27%
    21:00 +26°C° 0 mm 2 mps 756 mmHg 28%
    22:00 +26°C° 0 mm 3 mps 756 mmHg 30%
    23:00 +25°C° 0 mm 4 mps 756 mmHg 32%
    Show more